sat.trackr.live / text

‹ back to catalog

2024-226B

NORAD 62186 · 2024-226B

PAYLOAD ACTIVE UNKNOWN

§ Identity

Operator
Country
PRC
Launch date
2024-11-30
Launch site
WSC
Launch vehicle
Mass (kg)
RCS (m²)

External: N2YO · Heavens-Above · Gunter

§ Orbital elements

Epoch: 2026-05-25T04:27:50.999616Z

Period
107.34 min
Inclination
50.0050°
Eccentricity
0.0012658
Mean motion
13.41498485 rev/d
Perigee alt
1,094.2 km
Apogee alt
1,113.2 km
Semi-major
7,481.8 km
B*
1.1421e-4
RAAN
53.1005°
Arg perigee
5.4855°
Mean anomaly
354.6159°
Rev number
7,262

§ Raw data

2024-226B1 62186U 24226B   26145.18600694 -.00000064  00000+0  11421-3 0  99932 62186  50.0050  53.1005 0012658   5.4855 354.6159 13.41498485 72625

JSON: /api/v1/satellites/62186 · /tle

For live sub-satellite position, see the globe view (requires WebGL).

§ Visibility from observer

Set your observer location to see the next 7 days of passes ≥ 10°. The values pass through the URL so the page stays shareable.

No JS? Fill the form by hand. The geolocation button needs JavaScript.